Terminal Aerodrome Forecast
Issued by NWS Austin/San Antonio, TX

Home | Current Version | Previous Version | Text Only | Print | Product List | Glossary On
Versions: 1 2 3 4 5 6 7 8 9 10 11 12 13 14 15
000
FTUS44 KEWX 291130
TAFDRT
TAF
KDRT 291130Z 2912/3012 11009KT P6SM SKC
     FM291330 11009KT P6SM SCT015
     FM291700 14013KT P6SM FEW030=

USA.gov is the U.S. government's official web portal to all federal, state and local government web resources and services.